Wind_Speed
14 14 14 14 14 14 15 16 15 16 17 19 21 22 25 30 34 37 38 38 38 36 33 31 30 29 29 27 26 26 26 24 22 21 20 20 19 19 19 19 19 19 20 20
11 12 11 13 13 13 14 15 14 15 16 16 18 20 24 27 31 34 35 37 38 36 34 33 32 31 30 28 27 26 26 25 24 23 23 23 22 22 21 21 21 22 23 23
11 11 12 13 13 13 14 14 13 14 16 16 17 19 22 25 27 30 33 34 35 35 34 33 32 32 31 29 28 29 28 26 26 24 24 24 24 24 23 22 22 23 23 23
12 12 12 12 13 14 16 16 14 14 16 17 17 18 21 23 25 29 31 32 33 33 33 33 31 31 30 30 29 29 28 27 28 26 25 26 24 25 25 24 22 22 22 22
11 12 13 12 12 15 16 17 17 16 15 18 18 19 20 22 24 26 28 30 31 31 31 30 31 30 31 31 30 28 27 28 27 28 27 27 25 25 26 24 22 22 21 21
11 11 12 11 12 14 15 17 17 17 18 18 18 20 21 22 23 24 26 28 30 31 31 30 30 30 28 29 29 29 29 29 28 28 28 28 27 27 25 23 23 22 21 20
11 11 11 12 12 14 16 16 17 18 19 18 18 21 22 22 22 22 24 24 27 30 31 31 31 29 29 29 28 28 29 30 29 29 29 29 28 27 26 25 24 23 23 24
11 10 11 10 11 14 18 18 17 15 16 18 19 21 22 21 20 20 21 23 25 28 30 30 30 30 30 30 30 30 30 29 29 30 28 28 27 27 28 28 27 26 26 28
12 9 9 10 9 14 18 19 17 16 16 18 19 21 22 21 20 20 21 22 23 25 28 30 30 30 29 29 30 30 30 28 28 28 29 29 29 28 28 28 28 29 29 30
9 6 6 7 9 12 17 18 18 18 17 17 19 19 19 20 21 20 21 22 24 24 26 27 28 27 27 28 28 28 27 27 27 27 28 27 27 28 28 28 29 30 31 33
8 6 5 7 8 11 17 19 20 19 17 16 16 18 20 19 20 21 21 23 24 25 25 26 27 26 27 27 27 27 27 27 28 28 28 28 29 29 29 30 31 32 33 33
7 6 4 7 9 12 16 18 19 19 16 14 15 16 16 17 18 20 22 23 24 24 25 26 26 26 26 27 27 28 28 29 29 30 30 30 31 31 32 33 34 35 35 36
5 4 4 8 11 12 14 16 18 18 17 16 16 16 14 12 13 16 18 18 21 23 23 24 24 25 26 27 27 28 28 29 30 30 31 32 32 33 34 34 35 37 37 38
3 3 6 8 11 12 14 15 17 18 19 19 18 18 17 18 14 12 12 15 17 19 21 22 24 25 27 28 29 29 29 30 31 32 33 33 34 35 36 37 37 38 39 39
2 3 6 8 11 12 14 16 16 17 18 20 20 20 19 18 17 13 10 11 13 15 18 21 23 25 27 28 29 30 31 32 32 33 34 34 35 35 36 36 37 37 38 39
2 3 5 7 9 10 12 13 14 15 16 18 19 20 18 17 16 16 15 15 15 16 18 21 23 25 27 28 29 30 31 32 33 33 34 34 35 35 35 36 36 36 36 37
0 1 3 5 6 7 10 10 11 13 15 16 18 18 18 17 17 17 17 17 18 19 20 22 24 25 26 26 28 28 29 30 31 31 32 32 33 32 33 33 33 33 34 34
2 1 1 2 4 4 4 6 8 10 12 13 15 16 16 17 17 17 18 18 18 18 19 20 22 22 23 24 24 25 27 28 28 28 29 29 30 30 31 31 31 31 31 31
4 4 3 2 1 1 3 5 8 9 11 12 14 15 15 15 16 16 16 16 17 17 18 19 20 20 21 22 23 25 25 25 26 26 26 27 27 28 28 28 28 28 27 27
6 5 5 5 5 4 6 7 8 9 11 11 11 12 12 13 13 13 14 14 15 16 17 17 19 19 20 20 21 23 23 24 24 25 25 25 25 25 25 25 24 24 24 25
6 7 7 7 7 7 8 9 9 10 11 11 11 11 11 11 11 11 11 12 13 14 15 16 17 17 18 19 19 21 21 22 22 23 23 23 22 22 22 22 22 22 22 22
8 8 8 8 8 9 10 10 10 10 11 11 10 9 8 9 9 9 9 9 10 12 12 14 15 15 16 16 17 17 18 18 19 20 20 20 20 20 20 19 19 19 19 19
8 9 9 10 10 10 11 11 11 11 11 10 9 8 8 8 8 7 7 7 8 9 10 11 11 12 13 13 14 14 15 16 17 17 18 18 18 18 18 18 18 18 17 17
8 9 9 10 11 12 12 11 11 11 11 10 9 8 8 7 7 7 7 7 7 7 8 8 9 11 11 12 13 14 15 15 16 17 17 17 17 16 16 16 16 16 15 15
8 8 9 11 12 13 13 13 13 12 12 11 10 9 8 8 7 7 7 7 6 6 7 8 9 10 10 11 12 13 14 15 16 16 16 16 16 16 15 15 14 14 13 13
8 9 10 11 12 14 14 14 14 14 13 12 11 10 9 8 8 7 7 7 6 7 7 7 8 9 10 11 12 13 14 15 15 14 14 15 14 14 13 13 13 12 12 11
Wind_Direction
275 263 255 249 245 238 229 226 221 210 209 223 223 219 215 214 219 222 224 228 233 238 242 247 247 247 243 241 242 244 245 240 239 239 237 238 237 238 242 245 246 251 257 261
267 247 240 232 228 224 218 214 207 198 202 219 215 209 206 208 213 217 220 224 230 235 241 244 248 247 244 242 239 236 236 241 240 242 241 239 240 242 243 245 251 256 260 264
256 234 225 224 220 217 209 207 204 201 199 208 212 211 210 208 210 213 217 222 227 232 237 242 246 248 248 243 238 237 237 239 238 243 243 241 244 245 246 247 252 257 260 265
261 238 231 232 221 220 214 208 210 207 203 198 206 216 215 213 213 213 217 222 226 231 236 241 243 246 245 243 242 242 241 242 242 244 246 244 248 249 249 251 257 263 266 269
272 249 238 234 227 226 217 214 216 214 210 204 206 218 218 218 217 217 220 224 226 230 234 237 240 246 245 245 244 246 247 248 248 246 247 248 250 252 252 253 260 265 270 274
283 262 249 238 228 222 217 217 219 218 214 211 210 220 222 221 222 224 225 226 229 231 232 236 240 246 248 251 254 253 255 254 252 250 251 253 257 257 257 261 266 270 275 280
286 267 254 241 231 218 213 216 217 218 216 215 218 223 226 225 226 225 228 228 230 232 233 237 243 246 249 253 257 258 258 260 256 253 256 258 262 264 266 271 273 279 284 287
292 272 256 240 227 214 207 212 214 215 218 220 224 227 231 233 234 232 232 230 231 234 236 240 244 249 251 251 254 257 260 261 260 259 263 264 266 273 276 277 279 284 287 287
299 277 256 235 219 211 202 207 209 215 217 222 224 228 232 236 239 240 236 230 232 236 239 242 244 247 249 250 252 255 259 260 261 263 265 269 272 276 279 281 283 286 286 287
301 291 250 223 210 204 199 201 211 220 226 231 230 235 239 240 243 247 241 235 234 237 241 242 243 246 248 251 252 254 258 261 263 266 269 272 277 282 284 284 285 286 287 287
293 294 242 213 204 195 196 204 213 222 229 242 249 248 245 252 253 249 239 236 238 239 240 242 243 245 250 253 254 256 259 262 265 268 272 275 277 280 281 283 284 285 285 287
291 287 247 209 199 196 201 210 220 230 238 253 261 261 259 265 261 250 241 238 238 239 240 242 243 247 251 254 256 257 260 263 266 269 272 273 275 276 279 281 282 284 286 288
299 275 216 195 198 200 206 214 227 236 247 258 265 273 274 283 264 246 240 240 242 242 243 245 246 249 253 255 257 259 261 264 266 269 271 274 275 277 279 281 283 284 286 288
303 237 213 204 204 209 213 221 231 238 249 257 265 276 283 290 285 272 250 240 239 241 243 247 250 252 255 257 259 260 262 265 267 269 271 273 275 277 279 281 282 284 286 288
295 221 214 219 219 220 224 228 236 242 250 258 267 277 281 282 286 289 275 261 254 252 251 250 252 254 256 258 260 262 264 266 268 270 272 274 276 278 279 281 283 284 286 288
296 249 214 218 221 223 233 239 244 250 257 262 267 274 276 279 278 279 278 276 268 260 257 255 256 257 258 259 262 264 265 267 269 271 274 276 277 279 281 282 284 285 287 288
219 218 200 208 219 228 244 251 258 257 261 268 272 273 274 276 276 277 276 274 272 267 260 257 258 258 259 262 265 266 267 269 271 272 275 276 277 279 280 282 283 285 287 288
64 93 169 207 209 230 262 265 278 278 283 283 281 282 282 280 278 275 276 274 268 267 266 261 259 258 260 262 265 267 269 270 272 274 275 277 278 279 281 282 283 285 287 289
75 75 73 65 9 319 310 307 306 302 301 298 293 290 291 286 283 279 277 273 267 265 263 264 263 263 263 264 267 270 272 273 274 276 278 279 280 281 282 282 284 285 287 289
71 66 55 37 28 20 352 335 324 317 314 309 303 301 299 294 291 286 279 271 267 265 267 267 267 267 269 270 270 271 272 273 276 277 278 279 279 280 282 283 284 285 286 288
65 58 49 36 23 10 355 345 336 331 328 321 316 311 307 304 301 293 284 273 268 269 269 268 270 273 273 273 272 273 273 274 276 277 278 279 279 280 281 282 283 284 287 289
65 57 49 36 24 11 1 356 351 343 336 333 330 327 321 313 307 302 293 283 276 275 272 272 272 272 273 273 274 275 276 277 277 277 278 280 281 282 283 283 284 286 287 289
65 56 46 37 27 16 10 6 1 355 349 345 340 338 334 326 318 312 306 294 287 284 282 278 275 275 275 275 276 277 279 280 280 280 281 282 282 282 282 282 283 286 287 288
62 51 43 35 27 20 17 14 10 6 3 360 355 348 344 341 336 330 321 311 303 298 293 288 286 282 278 276 277 279 281 283 284 283 282 281 281 280 280 280 282 285 288 291
63 51 41 34 28 24 22 19 16 13 11 9 4 359 353 347 344 341 340 335 322 310 304 298 293 287 282 281 282 284 286 288 287 285 283 281 279 278 278 279 282 284 289 294
63 54 43 36 30 26 25 23 21 20 18 17 14 10 7 5 3 358 353 348 339 332 324 315 309 302 294 293 293 292 291 290 288 286 284 282 281 279 277 278 280 284 288 293
Height
5777 5778 5778 5778 5778 5779 5780 5782 5785 5788 5789 5789 5790 5794 5799 5802 5806 5812 5818 5823 5826 5831 5835 5837 5839 5841 5843 5846 5849 5851 5853 5854 5856 5857 5858 5859 5860 5861 5862 5862 5862 5862 5862 5862
5775 5775 5774 5774 5775 5775 5777 5779 5781 5783 5785 5786 5788 5790 5793 5796 5801 5806 5812 5817 5821 5825 5829 5832 5834 5836 5837 5840 5842 5843 5846 5847 5849 5850 5851 5853 5854 5855 5856 5856 5856 5857 5857 5857
5771 5771 5770 5771 5771 5772 5774 5776 5778 5779 5781 5783 5785 5787 5788 5792 5796 5801 5806 5811 5816 5820 5823 5826 5828 5830 5831 5833 5835 5837 5838 5840 5842 5844 5845 5847 5848 5849 5850 5850 5851 5851 5850 5850
5767 5767 5767 5767 5768 5769 5771 5773 5775 5776 5777 5779 5783 5784 5786 5789 5793 5797 5801 5806 5811 5814 5817 5820 5822 5824 5826 5827 5830 5829 5830 5833 5836 5838 5839 5840 5841 5841 5842 5843 5844 5844 5843 5843
5765 5764 5763 5763 5765 5766 5768 5770 5772 5773 5774 5776 5779 5781 5784 5786 5789 5793 5797 5801 5805 5808 5811 5814 5816 5817 5819 5821 5823 5825 5824 5827 5829 5831 5833 5833 5834 5834 5835 5836 5837 5838 5837 5836
5762 5761 5760 5760 5761 5763 5765 5767 5768 5770 5772 5775 5777 5779 5781 5784 5786 5790 5793 5796 5799 5802 5806 5809 5811 5812 5812 5815 5818 5819 5820 5821 5823 5824 5825 5826 5827 5827 5827 5828 5829 5830 5830 5830
5759 5759 5758 5758 5758 5760 5762 5764 5766 5768 5770 5773 5775 5776 5778 5780 5783 5785 5788 5791 5794 5797 5800 5803 5805 5807 5809 5811 5813 5814 5814 5815 5816 5818 5819 5820 5820 5820 5821 5821 5822 5823 5823 5824
5756 5756 5755 5754 5755 5757 5759 5762 5765 5766 5768 5770 5771 5772 5775 5776 5778 5781 5783 5786 5789 5792 5794 5797 5799 5802 5803 5805 5807 5809 5809 5810 5811 5812 5813 5813 5813 5814 5815 5815 5815 5816 5817 5817
5753 5753 5753 5752 5753 5754 5757 5759 5762 5764 5765 5767 5768 5770 5772 5772 5774 5776 5779 5781 5784 5787 5789 5792 5794 5796 5798 5800 5802 5803 5804 5805 5806 5806 5807 5807 5808 5808 5809 5809 5809 5810 5810 5809
5751 5751 5751 5751 5752 5753 5755 5758 5760 5762 5763 5764 5765 5767 5768 5769 5770 5772 5774 5777 5780 5782 5784 5786 5788 5790 5792 5794 5795 5797 5798 5799 5800 5800 5802 5802 5802 5802 5802 5803 5803 5802 5802 5801
5749 5750 5750 5750 5750 5752 5754 5756 5757 5759 5761 5762 5763 5766 5765 5765 5765 5766 5768 5771 5774 5777 5779 5781 5783 5785 5787 5788 5790 5791 5792 5793 5794 5795 5796 5796 5796 5796 5796 5796 5795 5795 5794 5793
5748 5748 5748 5749 5750 5750 5752 5754 5755 5757 5759 5760 5760 5764 5761 5761 5760 5761 5762 5766 5769 5771 5774 5776 5778 5779 5781 5782 5784 5785 5786 5787 5788 5789 5789 5789 5790 5789 5789 5788 5788 5787 5786 5784
5747 5747 5747 5748 5750 5750 5751 5752 5753 5755 5756 5757 5758 5761 5757 5756 5755 5757 5758 5761 5764 5766 5769 5771 5772 5774 5775 5776 5777 5778 5779 5780 5781 5781 5782 5782 5782 5781 5781 5780 5779 5778 5776 5775
5746 5746 5747 5748 5747 5748 5749 5750 5751 5753 5753 5754 5755 5756 5755 5754 5754 5754 5755 5756 5758 5761 5764 5765 5767 5768 5769 5770 5771 5772 5772 5773 5773 5774 5774 5774 5773 5773 5772 5771 5770 5768 5767 5765
5745 5745 5745 5746 5746 5747 5748 5749 5749 5750 5751 5752 5752 5752 5753 5752 5752 5752 5752 5753 5754 5756 5758 5759 5761 5762 5763 5763 5764 5765 5765 5765 5766 5766 5766 5765 5765 5764 5763 5762 5761 5759 5757 5755
5744 5744 5744 5744 5745 5745 5746 5747 5747 5748 5748 5748 5748 5748 5748 5748 5748 5749 5749 5749 5750 5752 5753 5754 5754 5755 5755 5756 5756 5757 5757 5758 5758 5757 5757 5757 5756 5755 5754 5753 5751 5749 5748 5746
5744 5744 5743 5743 5744 5745 5745 5745 5745 5745 5745 5745 5744 5745 5744 5744 5744 5744 5744 5744 5745 5746 5747 5747 5747 5747 5748 5748 5749 5749 5749 5749 5749 5749 5748 5748 5747 5746 5745 5744 5742 5740 5738 5737
5744 5743 5743 5743 5744 5744 5745 5743 5743 5742 5741 5741 5740 5739 5739 5739 5739 5739 5739 5739 5739 5739 5740 5740 5741 5741 5741 5741 5741 5741 5741 5741 5741 5741 5740 5740 5739 5738 5737 5735 5733 5732 5730 5728
5744 5744 5743 5743 5743 5742 5743 5741 5740 5739 5738 5737 5735 5735 5734 5733 5733 5733 5734 5734 5734 5734 5734 5734 5734 5734 5735 5734 5735 5735 5734 5734 5734 5733 5733 5732 5731 5730 5728 5727 5725 5724 5722 5720
5745 5744 5744 5743 5742 5742 5742 5740 5738 5738 5736 5734 5733 5731 5730 5730 5730 5730 5729 5729 5729 5729 5729 5729 5729 5728 5728 5728 5728 5728 5728 5727 5727 5726 5725 5724 5723 5722 5721 5720 5718 5717 5715 5713
5745 5744 5744 5743 5742 5741 5740 5738 5737 5736 5735 5732 5730 5728 5727 5726 5726 5726 5724 5724 5724 5724 5724 5724 5723 5723 5723 5723 5722 5722 5721 5721 5720 5720 5719 5718 5716 5715 5714 5713 5712 5710 5708 5706
5746 5745 5744 5743 5742 5742 5738 5736 5735 5734 5731 5729 5727 5725 5724 5723 5722 5722 5721 5720 5720 5719 5719 5719 5719 5718 5718 5717 5717 5716 5716 5715 5714 5713 5713 5711 5710 5709 5708 5707 5706 5704 5702 5700
5746 5746 5745 5744 5744 5741 5738 5736 5734 5732 5730 5728 5726 5724 5723 5722 5720 5719 5718 5718 5717 5716 5716 5715 5714 5714 5713 5713 5712 5711 5711 5710 5709 5708 5707 5706 5705 5703 5702 5701 5700 5699 5697 5695
5747 5746 5745 5744 5742 5740 5738 5736 5733 5731 5729 5727 5725 5723 5722 5720 5719 5718 5717 5715 5714 5713 5712 5712 5711 5710 5709 5709 5708 5707 5706 5705 5704 5703 5702 5701 5699 5698 5697 5696 5695 5694 5693 5691
5748 5747 5746 5744 5743 5740 5738 5736 5733 5731 5729 5726 5724 5722 5721 5719 5718 5716 5715 5714 5712 5711 5710 5709 5708 5707 5706 5705 5704 5703 5701 5700 5699 5697 5696 5695 5694 5693 5692 5691 5690 5689 5688 5687
5749 5749 5747 5746 5744 5742 5739 5736 5734 5731 5729 5726 5724 5722 5720 5718 5717 5715 5714 5712 5711 5709 5708 5706 5705 5703 5702 5701 5700 5698 5697 5695 5694 5692 5691 5690 5688 5687 5687 5686 5686 5685 5684 5683